FW6321 Weather Reports


time (UTC)temp
F
wind
direction
speed
knots
gust
knots
rain 1hr
in
rain 24hr
in
rain mn
in
humidity
%
barometer
mb
20260901040505 62 187 2.6 6.1 0.00 0.21 0.15 98 1018.0
20260901040007 62 182 1.7 6.1 0.00 0.21 0.15 98 1018.0
20260901035945 62 185 1.7 3.5 0.01 0.21 0.15 98 1017.9
20260901035004 62 228 1.7 3.5 0.01 0.21 0.15 98 1018.1
20260901034503 62 214 1.7 5.2 0.01 0.21 0.15 98 1018.1
20260901034431 62 195 1.7 3.5 0.01 0.21 0.15 98 1018.0
20260901034422 62 216 1.7 3.5 0.01 0.21 0.15 98 1018.0
20260901034204 62 219 2.6 5.2 0.01 0.21 0.15 98 1017.9
20260901032506 62 225 1.7 4.3 0.01 0.21 0.15 98 1018.0
20260901032004 62 222 1.7 5.2 0.01 0.21 0.15 97 1018.0
20260901031504 62 191 1.7 5.2 0.01 0.21 0.15 97 1017.9
20260901031004 62 195 1.7 3.5 0.01 0.21 0.15 97 1017.9
20260901030505 62 202 1.7 4.3 0.01 0.21 0.15 97 1017.9
20260901030004 62 199 2.6 5.2 0.01 0.21 0.15 97 1017.9
20260901025504 62 182 2.6 5.2 0.00 0.20 0.14 97 1017.8
20260901024957 62 198 2.6 4.3 0.00 0.20 0.14 97 1017.7
20260901024458 62 188 1.7 4.3 0.00 0.20 0.14 97 1017.8
20260901023955 62 199 1.7 4.3 0.00 0.20 0.14 97 1017.8
20260901023458 62 201 2.6 4.3 0.00 0.20 0.14 97 1017.7
20260901022954 62 210 1.7 4.3 0.00 0.20 0.14 97 1017.6
20260901022456 62 186 1.7 4.3 0.00 0.20 0.14 97 1017.6
20260901021959 62 218 1.7 3.5 0.00 0.20 0.14 97 1017.6
20260901021457 61 214 1.7 4.3 0.00 0.20 0.14 97 1017.7
20260901020958 61 230 1.7 4.3 0.00 0.20 0.14 97 1017.7
20260901020929 61 199 1.7 4.3 0.00 0.20 0.14 97 1017.6
20260901015956 61 193 1.7 4.3 0.00 0.20 0.14 97 1017.6
20260901015932 61 177 1.7 4.3 0.00 0.20 0.14 97 1017.6
20260901015436 60 175 1.7 3.5 0.00 0.20 0.14 97 1017.5
20260901014931 60 185 1.7 3.5 0.00 0.20 0.14 97 1017.6
20260901013954 60 187 0.9 3.5 0.00 0.20 0.14 96 1017.6
20260901013454 60 205 0.9 2.6 0.00 0.20 0.14 96 1017.5
20260901012950 60 206 0.9 2.6 0.00 0.20 0.14 96 1017.5
20260901012452 60 181 0.0 1.7 0.00 0.20 0.14 96 1017.5
20260901011949 60 168 0.0 1.7 0.00 0.20 0.14 96 1017.4
20260901011914 60 168 1.7 4.3 0.00 0.20 0.14 96 1017.5
20260901011652 60 168 0.9 4.3 0.00 0.20 0.14 96 1017.4
20260901010447 60 177 1.7 3.5 0.00 0.20 0.14 96 1017.5
20260901005948 60 183 1.7 4.3 0.00 0.20 0.14 96 1017.6
20260901005448 60 187 2.6 5.2 0.00 0.20 0.14 96 1017.6
20260901004949 60 199 2.6 5.2 0.00 0.20 0.14 95 1017.5
20260901004448 60 181 1.7 4.3 0.00 0.20 0.14 95 1017.5
20260901003944 60 185 1.7 3.5 0.00 0.20 0.14 95 1017.5
20260901003444 60 186 1.7 4.3 0.00 0.20 0.14 95 1017.4
20260901002944 60 188 2.6 4.3 0.00 0.20 0.14 95 1017.5
20260901002925 60 172 2.6 3.5 0.00 0.20 0.14 95 1017.5
20260901001946 60 183 1.7 3.5 0.00 0.20 0.14 95 1017.5
20260901001444 60 183 1.7 3.5 0.00 0.20 0.14 95 1017.5
20260901000945 60 188 1.7 3.5 0.00 0.20 0.14 95 1017.4
20260901000450 60 199 1.7 4.3 0.00 0.20 0.14 94 1017.4
20260831235946 60 201 1.7 4.3 0.00 0.20 0.14 95 1017.4
20260831235444 61 183 2.6 4.3 0.00 0.20 0.14 94 1017.3
20260831234945 61 183 2.6 5.2 0.00 0.20 0.14 94 1017.4
20260831234443 61 187 2.6 6.1 0.00 0.20 0.14 94 1017.3
20260831233944 61 191 2.6 6.1 0.00 0.20 0.14 94 1017.4
20260831233446 61 185 2.6 4.3 0.00 0.20 0.14 94 1017.4
20260831232945 61 172 2.6 7.0 0.02 0.20 0.14 94 1017.4
20260831232443 61 181 2.6 7.0 0.06 0.20 0.14 93 1017.3
20260831231941 61 180 2.6 4.3 0.14 0.20 0.14 93 1017.4
20260831231442 61 177 1.7 3.5 0.14 0.20 0.14 93 1017.3
20260831230936 61 212 1.7 5.2 0.14 0.20 0.14 93 1017.2
20260831230924 61 217 2.6 8.7 0.14 0.20 0.14 92 1017.1
20260831225935 62 237 2.6 8.7 0.14 0.20 0.14 92 1017.2
20260831225438 62 206 2.6 7.0 0.14 0.20 0.14 93 1017.3
20260831224935 63 218 2.6 7.0 0.14 0.20 0.14 92 1017.2
20260831224438 63 246 3.5 7.8 0.14 0.20 0.14 92 1017.2
20260831223934 64 198 3.5 7.8 0.14 0.20 0.14 92 1017.2
20260831223435 64 175 3.5 8.7 0.14 0.20 0.14 92 1017.0
20260831222948 65 256 5.2 12.2 0.08 0.14 0.08 92 1017.2
20260831222933 65 251 5.2 12.2 0.12 0.18 0.11 92 1017.1
20260831221932 65 254 5.2 7.8 0.00 0.06 0.00 91 1017.3
20260831221432 65 219 4.3 7.8 0.00 0.06 0.00 91 1017.0
20260831220933 65 171 3.5 7.8 0.00 0.06 0.00 91 1016.9
20260831220432 65 214 4.3 9.6 0.00 0.06 0.00 91 1016.9
20260831215932 65 218 4.3 9.6 0.00 0.06 0.06 91 1016.8
20260831215430 65 196 4.3 11.3 0.00 0.06 0.06 91 1016.7
20260831214944 65 199 4.3 9.6 0.00 0.06 0.06 91 1016.8
20260831214933 65 245 3.5 11.3 0.00 0.06 0.06 91 1016.7
20260831213934 65 215 4.3 8.7 0.00 0.06 0.06 92 1016.8
20260831213929 65 216 4.3 9.6 0.00 0.06 0.06 92 1016.7
20260831212932 65 226 4.3 9.6 0.00 0.06 0.06 92 1016.7
20260831212431 65 233 4.3 9.6 0.00 0.06 0.06 91 1016.7
20260831211933 65 227 4.3 9.6 0.00 0.06 0.06 91 1016.6
20260831211907 66 201 4.3 9.6 0.00 0.06 0.06 92 1016.6
20260831210932 66 189 4.3 9.6 0.00 0.06 0.06 91 1016.6
20260831210432 66 238 3.5 7.8 0.00 0.06 0.06 91 1016.5
20260831205934 66 214 3.5 7.8 0.00 0.06 0.06 91 1016.4
20260831205913 66 233 3.5 7.0 0.00 0.06 0.06 90 1016.4
20260831204930 66 213 3.5 11.3 0.00 0.06 0.06 90 1016.4
20260831204431 66 218 4.3 11.3 0.00 0.06 0.06 89 1016.5
20260831204412 66 210 4.3 10.4 0.00 0.06 0.06 89 1016.4
20260831203434 66 217 4.3 9.6 0.00 0.06 0.06 89 1016.3
20260831202931 66 229 4.3 9.6 0.00 0.06 0.06 88 1016.3
20260831202430 66 215 4.3 9.6 0.00 0.06 0.06 88 1016.3
20260831201933 66 237 4.3 8.7 0.00 0.06 0.06 88 1016.3
20260831201433 66 248 5.2 10.4 0.00 0.06 0.06 88 1016.3
20260831200931 66 206 5.2 10.4 0.00 0.06 0.06 87 1016.2
20260831200432 66 235 5.2 11.3 0.00 0.06 0.06 87 1016.2
20260831195932 66 220 6.1 11.3 0.00 0.06 0.06 87 1016.2
20260831195431 66 255 4.3 9.6 0.00 0.06 0.06 87 1016.1
20260831194933 66 233 4.3 11.3 0.00 0.06 0.06 87 1016.1
20260831194915 66 210 4.3 11.3 0.00 0.06 0.06 86 1015.9
20260831193933 66 204 3.5 8.7 0.00 0.06 0.06 86 1015.9
20260831193431 65 229 4.3 7.0 0.00 0.06 0.06 85 1015.8
20260831192932 65 236 4.3 8.7 0.00 0.06 0.06 84 1015.8
20260831192906 65 216 4.3 8.7 0.00 0.06 0.06 83 1015.8
20260831191930 65 229 4.3 7.8 0.00 0.06 0.06 83 1015.6
20260831191431 66 235 3.5 7.8 0.00 0.06 0.06 82 1015.6
20260831191417 66 181 3.5 8.7 0.00 0.06 0.06 82 1015.5
20260831190433 66 212 4.3 8.7 0.00 0.06 0.06 82 1015.4
20260831190418 66 242 4.3 8.7 0.00 0.06 0.06 81 1015.4
20260831185915 66 204 3.5 8.7 0.00 0.06 0.06 81 1015.4
20260831184931 66 205 3.5 7.0 0.00 0.06 0.06 81 1015.3
20260831184430 66 229 3.5 7.8 0.00 0.06 0.06 80 1015.3
20260831183932 66 210 3.5 7.8 0.00 0.06 0.06 80 1015.3
20260831183431 66 254 3.5 7.0 0.00 0.06 0.06 80 1015.2
20260831182931 66 225 4.3 10.4 0.00 0.06 0.06 80 1015.0
20260831182432 66 240 4.3 10.4 0.00 0.06 0.06 80 1015.1
20260831181932 66 241 4.3 9.6 0.00 0.06 0.06 79 1014.9
20260831181434 66 197 5.2 10.4 0.00 0.06 0.06 79 1014.8
20260831180932 66 243 6.1 11.3 0.00 0.06 0.06 79 1014.8
20260831180432 66 224 6.1 11.3 0.00 0.06 0.06 79 1014.6
20260831175931 67 240 6.1 12.2 0.00 0.06 0.06 79 1014.6
20260831175430 67 210 7.8 16.5 0.00 0.06 0.06 79 1014.5
20260831174931 67 230 7.0 16.5 0.00 0.06 0.06 79 1014.5
20260831174430 67 232 7.0 14.8 0.00 0.06 0.06 79 1014.5
20260831173932 67 204 7.8 14.8 0.00 0.06 0.06 79 1014.3
20260831173432 67 237 7.8 14.8 0.00 0.06 0.06 79 1014.2
20260831172933 67 255 8.7 14.8 0.00 0.06 0.06 80 1014.3
20260831172432 67 232 8.7 14.8 0.00 0.06 0.06 80 1014.2
20260831171933 67 245 7.8 13.0 0.00 0.06 0.06 81 1014.2
20260831171432 66 235 7.0 13.0 0.00 0.06 0.06 83 1014.0
20260831170933 66 229 7.0 13.0 0.01 0.06 0.06 84 1014.0
20260831170436 66 241 7.0 11.3 0.01 0.06 0.06 85 1013.8
20260831165932 65 233 5.2 12.2 0.01 0.06 0.06 86 1013.8
20260831165432 65 239 3.5 12.2 0.01 0.06 0.06 86 1013.7
20260831164928 65 253 3.5 7.8 0.01 0.06 0.06 86 1013.7
20260831164427 65 249 4.3 7.8 0.01 0.06 0.06 86 1013.8
20260831163928 65 248 4.3 10.4 0.01 0.06 0.06 86 1013.7
20260831163915 65 262 5.2 10.4 0.01 0.06 0.06 85 1013.7
20260831163407 65 212 6.1 12.2 0.01 0.06 0.06 84 1013.6
20260831162430 65 237 7.8 13.0 0.01 0.06 0.06 83 1013.5
20260831161931 65 233 8.7 15.6 0.01 0.06 0.06 82 1013.6
20260831161430 66 234 9.6 18.2 0.01 0.06 0.06 81 1013.6
20260831160930 67 252 10.4 23.5 0.00 0.06 0.06 79 1013.6
20260831160428 68 241 10.4 23.5 0.00 0.06 0.06 77 1013.4
20260831155931 68 231 10.4 21.7 0.00 0.06 0.06 75 1013.3
20260831155428 68 270 10.4 21.7 0.00 0.06 0.06 74 1013.2
20260831154931 69 231 10.4 21.7 0.00 0.06 0.06 74 1013.1
20260831154919 69 187 10.4 21.7 0.00 0.06 0.06 74 1013.1
20260831153929 68 247 9.6 17.4 0.00 0.06 0.06 75 1013.0
20260831153428 68 250 9.6 17.4 0.00 0.06 0.06 76 1012.9
20260831152928 68 216 10.4 20.9 0.00 0.06 0.06 77 1013.0
20260831152428 68 211 10.4 20.9 0.00 0.06 0.06 76 1012.9
20260831151929 68 234 9.6 20.0 0.00 0.06 0.06 76 1012.9
20260831151918 68 230 8.7 20.0 0.00 0.06 0.06 76 1012.8
20260831150926 68 252 10.4 21.7 0.00 0.06 0.06 76 1012.7
20260831150905 68 249 10.4 20.9 0.00 0.06 0.06 74 1012.6
20260831150630 68 265 10.4 21.7 0.00 0.06 0.06 75 1012.7
20260831145913 69 235 12.2 21.7 0.00 0.06 0.06 74 1012.6
20260831144923 68 249 12.2 21.7 0.00 0.06 0.06 75 1012.6
20260831144424 68 223 13.0 22.6 0.00 0.06 0.06 74 1012.5
20260831143924 68 243 13.0 22.6 0.00 0.06 0.06 73 1012.5
20260831143915 69 254 11.3 22.6 0.00 0.06 0.06 72 1012.3
20260831142923 68 208 10.4 18.2 0.00 0.06 0.06 75 1012.3
20260831142423 68 241 11.3 23.5 0.00 0.06 0.06 75 1012.2
20260831141921 68 214 12.2 23.5 0.00 0.06 0.06 74 1012.1
20260831141416 68 231 11.3 24.3 0.00 0.06 0.06 73 1012.0
20260831140913 68 206 10.4 24.3 0.00 0.06 0.06 71 1011.9
20260831140857 69 229 11.3 23.5 0.00 0.06 0.06 70 1011.8
20260831140356 69 275 11.3 23.5 0.00 0.06 0.06 69 1011.6
20260831135414 69 214 10.4 23.5 0.00 0.06 0.06 70 1011.4
20260831135346 69 216 12.2 25.2 0.00 0.06 0.06 70 1011.4
20260831134414 69 235 12.2 25.2 0.00 0.06 0.06 69 1011.4
20260831133911 69 229 9.6 22.6 0.00 0.06 0.06 69 1011.4
20260831133410 70 242 11.3 26.1 0.00 0.06 0.06 70 1011.4
20260831132910 69 233 13.9 26.1 0.00 0.06 0.06 70 1011.2
20260831132410 69 180 13.9 26.1 0.00 0.06 0.06 69 1011.3
20260831132358 69 239 13.0 25.2 0.00 0.06 0.06 70 1011.3
20260831131410 70 239 12.2 26.9 0.00 0.06 0.06 68 1011.1
20260831130908 70 229 11.3 26.9 0.00 0.06 0.06 70 1011.0
20260831130404 69 233 9.6 17.4 0.00 0.06 0.06 74 1011.0
20260831125906 67 216 11.3 20.9 0.00 0.06 0.06 76 1010.9
20260831125404 68 241 13.0 25.2 0.00 0.06 0.06 74 1010.9
20260831124909 67 247 13.0 25.2 0.00 0.06 0.06 74 1010.6
20260831124403 68 227 12.2 24.3 0.00 0.06 0.06 74 1010.7
20260831123904 68 235 12.2 24.3 0.00 0.06 0.06 74 1010.6
20260831123357 68 251 9.6 20.9 0.00 0.06 0.06 74 1010.5
20260831122853 69 212 9.6 23.5 0.00 0.06 0.06 73 1010.6
20260831122345 69 236 10.4 23.5 0.00 0.06 0.06 71 1010.4
20260831121838 70 236 10.4 21.7 0.00 0.06 0.06 71 1010.5
20260831121335 69 229 12.2 21.7 0.00 0.06 0.06 71 1010.3
20260831120833 69 228 12.2 21.7 0.00 0.06 0.06 70 1010.2
20260831120333 69 281 13.0 28.7 0.00 0.06 0.06 70 1010.3
20260831115833 69 227 13.9 28.7 0.00 0.06 0.06 71 1010.3
20260831115331 68 236 13.0 25.2 0.00 0.06 0.06 72 1010.2
20260831115318 67 214 10.4 21.7 0.00 0.06 0.06 74 1010.1
20260831114817 67 278 10.4 21.7 0.00 0.06 0.06 75 1010.0
20260831114321 68 92 9.6 18.2 0.00 0.06 0.06 77 1010.0
20260831113334 68 219 7.8 18.2 0.00 0.06 0.06 78 1009.9
20260831113316 68 241 7.8 17.4 0.00 0.06 0.06 80 1009.8
20260831113041 68 192 7.0 17.4 0.00 0.06 0.06 80 1009.9
20260831112315 68 188 7.8 16.5 0.00 0.06 0.06 79 1009.7
20260831111332 68 252 8.7 17.4 0.00 0.06 0.06 80 1009.7
20260831110832 67 237 8.7 17.4 0.00 0.06 0.06 81 1009.7
20260831110333 67 270 7.8 15.6 0.00 0.06 0.06 83 1009.7
20260831105830 66 220 8.7 25.2 0.00 0.06 0.06 84 1009.8
20260831105333 67 221 9.6 25.2 0.00 0.06 0.06 80 1009.8
20260831104833 68 197 8.7 22.6 0.00 0.06 0.06 75 1009.7
20260831104327 68 226 9.6 20.0 0.00 0.06 0.06 74 1009.7
20260831103827 69 230 9.6 21.7 0.00 0.06 0.06 74 1009.5
20260831103325 69 257 8.7 21.7 0.00 0.06 0.06 74 1009.5
20260831102827 68 237 8.7 21.7 0.00 0.06 0.06 77 1009.4
20260831102327 67 245 8.7 21.7 0.00 0.06 0.06 76 1009.3
20260831101828 67 219 7.8 18.2 0.00 0.06 0.06 76 1009.3
20260831101326 67 220 8.7 20.0 0.00 0.06 0.06 77 1009.3
20260831100827 67 204 9.6 20.0 0.00 0.06 0.06 76 1009.4
20260831100326 68 236 8.7 18.2 0.00 0.06 0.06 76 1009.3
20260831095825 68 264 7.8 17.4 0.00 0.06 0.06 76 1009.3
20260831095327 68 202 7.0 17.4 0.00 0.06 0.06 76 1009.1
20260831094825 68 231 8.7 16.5 0.00 0.06 0.06 77 1009.2
20260831094327 67 227 10.4 20.9 0.00 0.06 0.06 78 1009.2
20260831093826 67 245 11.3 20.9 0.00 0.06 0.06 78 1009.2
20260831093327 67 213 9.6 24.3 0.00 0.06 0.06 79 1009.3
20260831092826 67 210 8.7 24.3 0.00 0.06 0.06 80 1009.1
20260831092325 66 220 11.3 20.9 0.00 0.06 0.06 79 1009.2
20260831091827 66 206 11.3 26.1 0.00 0.06 0.06 80 1009.0
20260831091327 66 212 8.7 26.1 0.00 0.06 0.06 81 1009.0
20260831090825 66 239 8.7 20.0 0.00 0.06 0.06 82 1008.9
20260831090327 66 146 10.4 20.0 0.00 0.06 0.06 82 1009.0
20260831085824 65 227 11.3 20.9 0.00 0.06 0.06 82 1008.9
20260831085326 66 214 9.6 23.5 0.00 0.06 0.06 83 1008.8
20260831084825 65 175 8.7 23.5 0.00 0.06 0.06 85 1008.9
20260831084324 65 165 9.6 20.9 0.00 0.06 0.06 86 1008.8
20260831083823 65 235 11.3 22.6 0.00 0.06 0.06 85 1008.7
20260831083802 64 181 9.6 22.6 0.00 0.06 0.06 85 1008.6
20260831083310 64 278 9.6 20.0 0.00 0.06 0.06 86 1008.7
20260831082327 64 225 11.3 22.6 0.00 0.06 0.06 85 1008.6
20260831082316 64 283 11.3 23.5 0.00 0.06 0.06 86 1008.5
20260831081758 64 149 8.7 23.5 0.00 0.06 0.06 86 1008.5
20260831081300 64 183 7.8 20.0 0.00 0.06 0.06 86 1008.6
20260831080318 64 198 8.7 17.4 0.00 0.07 0.06 86 1008.4
20260831075820 64 202 9.6 24.3 0.00 0.07 0.06 87 1008.5
20260831075317 64 202 10.4 26.9 0.00 0.07 0.06 87 1008.5
20260831074817 63 194 8.7 26.9 0.00 0.08 0.06 87 1008.5
20260831074320 64 203 7.8 19.1 0.00 0.09 0.06 88 1008.5
20260831073819 64 216 7.8 13.9 0.00 0.09 0.06 89 1008.5
20260831073318 63 219 7.8 14.8 0.00 0.09 0.06 89 1008.4
20260831072818 63 214 7.8 16.5 0.01 0.09 0.06 90 1008.5
20260831072317 63 177 7.0 16.5 0.02 0.09 0.06 90 1008.4
20260831071820 63 179 7.8 20.0 0.02 0.09 0.06 91 1008.5
20260831071802 62 193 7.8 20.0 0.02 0.09 0.06 91 1008.6
20260831070810 62 216 7.0 14.8 0.02 0.09 0.06 92 1008.6
20260831070309 62 229 7.0 15.6 0.02 0.09 0.06 92 1008.5
20260831065812 62 174 7.0 19.1 0.02 0.09 0.06 92 1008.6
20260831065312 62 185 7.8 19.1 0.02 0.09 0.06 92 1008.7
20260831064826 62 179 7.8 18.2 0.06 0.09 0.06 92 1008.7
20260831064811 62 153 8.7 18.2 0.06 0.09 0.06 92 1008.7
20260831063812 62 154 7.0 16.5 0.06 0.09 0.06 93 1008.7
20260831063309 62 210 6.1 14.8 0.06 0.09 0.06 92 1009.0
20260831062810 62 176 5.2 13.0 0.05 0.09 0.05 92 1008.9
20260831062310 62 174 5.2 11.3 0.04 0.08 0.04 92 1009.0
20260831061809 62 214 5.2 11.3 0.04 0.08 0.04 92 1009.0
20260831061309 62 155 4.3 8.7 0.04 0.08 0.04 91 1008.9
20260831060809 62 181 5.2 14.8 0.04 0.08 0.04 91 1009.0
20260831060313 63 163 6.1 14.8 0.04 0.08 0.04 90 1008.9
20260831055810 63 172 7.0 14.8 0.04 0.08 0.04 89 1008.8
20260831055754 63 202 7.8 14.8 0.03 0.07 0.02 88 1008.6
20260831055249 64 196 7.0 16.5 0.00 0.04 0.00 88 1008.7
20260831054753 64 204 6.1 16.5 0.00 0.04 0.00 88 1008.6
20260831053806 63 116 6.1 14.8 0.00 0.04 0.00 89 1008.6
20260831053308 63 160 5.2 14.8 0.00 0.04 0.00 89 1008.5
20260831052809 63 218 5.2 13.9 0.00 0.04 0.00 89 1008.5
20260831052307 63 193 7.0 14.8 0.00 0.05 0.00 89 1008.5
20260831051803 63 181 6.1 14.8 0.00 0.05 0.00 89 1008.6
20260831051741 63 188 7.0 13.0 0.00 0.05 0.00 90 1008.6
20260831051509 63 254 6.1 13.9 0.00 0.05 0.00 90 1008.6
20260831050309 63 181 6.1 13.0 0.00 0.05 0.00 90 1008.5
20260831050255 63 226 5.2 9.6 0.00 0.06 0.00 90 1008.5
20260831045748 63 170 6.1 13.9 0.00 0.06 0.00 90 1008.6
20260831045233 63 174 6.1 13.9 0.00 0.06 0.00 90 1008.6
20260831044303 63 164 5.2 12.2 0.00 0.06 0.00 90 1008.7
20260831043800 63 182 5.2 12.2 0.00 0.06 0.00 90 1008.7
20260831043257 63 218 5.2 13.9 0.00 0.06 0.00 90 1008.9
20260831042757 63 156 5.2 15.6 0.00 0.06 0.00 90 1008.7
20260831042257 63 205 6.1 15.6 0.00 0.06 0.00 89 1008.5
20260831041756 63 195 7.0 15.6 0.00 0.06 0.00 89 1008.5
20260831041736 63 202 7.8 15.6 0.00 0.06 0.00 89 1008.4